Regional Weather Roundup
Issued by NWS

Home | Current Version | Previous Version | Graphics & Text | Print | Product List | Glossary On
Versions: 1 2 3 4 5 6 7 8 9 10 11 12 13 14 15 16 17 18 19 20 21 22 23 24 25 26 27 28 29 30 31 32 33 34 35 36 37 38 39 40 41 42 43 44 45 46 47 48 49 50
000
ASUS43 KIND 222009
RWRIN

WEATHER ROUNDUP FOR INDIANA
NATIONAL WEATHER SERVICE INDIANAPOLIS IN
300 PM EST MON JAN 22 2018

NOTE: "FAIR" INDICATES FEW OR NO CLOUDS BELOW 12,000 FEET WITH NO
SIGNIFICANT WEATHER AND/OR OBSTRUCTIONS TO VISIBILITY.

* - STATION DOES NOT REPORT WEATHER SUCH AS PRECIPITATION OR FOG.

+ - STATION NOT QUALITY CONTROLLED BY THE NATIONAL WEATHER SERVICE.
    USE DATA WITH CAUTION...ESPECIALLY DEWPOINT AND RELATIVE
    HUMIDITY OBSERVATIONS.

INZ001>003-010>013-019-020-222100-
NORTHWEST INDIANA

CITY           SKY/WX    TMP DP  RH WIND       PRES   REMARKS
GARY /AIRPORT/ CLOUDY    54  50  87 S17G31    29.50F
MICHIGAN CITY+ DRIZZLE   52  50  93 S16G25    29.51F
MONTICELLO +   CLOUDY    53  49  87 S14G21    29.53S
RENSSELAER +   CLOUDY    52  45  76 S18G28    29.53F
VALPARAISO     CLOUDY    53  49  86 S17G25    29.52F

$$

LMZ046-743>745-222100-
SOUTHERN LAKE MICHIGAN

STATION/POSITION TIME  TEMP    WIND        PRES    WAVE
                       AIR SEA DIR/SP/G            HT
                 (UTC) (F)     (DEG/KT/KT) (MB)    (FT)
BURNS HARBOR     1940   51     200/ 20/ 29  999.7F
MICHIGAN CITY    1940   52     180/ 23/ 29   N/A

$$

INZ004-005-014>016-021>024-222100-
NORTH CENTRAL INDIANA

CITY           SKY/WX    TMP DP  RH WIND       PRES   REMARKS
ELKHART        CLOUDY    54  48  82 S12G17    29.54F
GOSHEN         CLOUDY    52  48  86 S20G26    29.55F
PERU/GRISSOM   CLOUDY    53  53 100 S23G31    29.54F
SOUTH BEND     CLOUDY    52  48  86 S18G28    29.53F

$$

INZ006>009-017-018-025>027-222100-
NORTHEAST INDIANA

CITY           SKY/WX    TMP DP  RH WIND       PRES   REMARKS
FORT WAYNE     CLOUDY    54  48  80 S21G31    29.59F
KENDALLVILLE + CLOUDY    52  48  87 S14       29.58F

$$

INZ028-029-035-036-043>045-051>053-222100-
WEST CENTRAL INDIANA

CITY           SKY/WX    TMP DP  RH WIND       PRES   REMARKS
CRAWFORDSVL +  CLOUDY    51  51 100 MISG      29.56
GREENCASTLE +  CLOUDY    52  46  82 S13G24    29.57F
LAFAYETTE      CLOUDY    53  48  83 S16G30    29.54F
TERRE HAUTE    CLOUDY    53  48  83 S18G30    29.56F

$$

INZ030>032-037>040-046>048-054>057-064-065-222100-
CENTRAL INDIANA

CITY           SKY/WX    TMP DP  RH WIND       PRES   REMARKS
ANDERSON       CLOUDY    52  48  87 S17G35    29.62F
COLUMBUS       CLOUDY    50  48  93 S17G24    29.64F
INDIANAPOLIS   CLOUDY    53  49  86 S21G29    29.59F
-EAGLE CREEK   CLOUDY    53  48  83 S10G22    29.57F
MT COMFORT *+  CLOUDY    50  50 100 S23       29.61F
SHELBYVILLE    CLOUDY    54  48  80 S21G30    29.62F

$$

INZ033-034-041-042-049-050-058-059-222100-
EAST CENTRAL INDIANA

CITY           SKY/WX    TMP DP  RH WIND       PRES   REMARKS
MUNCIE         CLOUDY    55  47  74 S18G35    29.61F
RICHMOND +     CLOUDY    48  48 100 S18G28    29.68F

$$

INZ060-061-067>069-081>083-085>088-222100-
SOUTHWEST INDIANA

CITY           SKY/WX    TMP DP  RH WIND       PRES   REMARKS
EVANSVILLE     PTSUNNY   57  53  86 S14G25    29.60F
HUNTINGBURG +  CLOUDY    55  52  88 S21G28    29.61F

$$

INZ062-063-066-070>080-084-089>092-222100-
SOUTH CENTRAL AND SOUTHEAST INDIANA

CITY           SKY/WX    TMP DP  RH WIND       PRES   REMARKS
BATESVILLE *+    N/A    N/A N/A N/A MISG        N/A
BEDFORD +      CLOUDY    54  48  82 S15G23    29.63
BLOOMINGTON    CLOUDY    54  49  83 S15G23    29.59F
FRENCH LICK *+ CLOUDY    54 N/A N/A S10G22    29.62F
MADISON *+     CLOUDY    52  46  82 S13G28    29.71F
NORTH VERNON + CLOUDY    52  48  87 S16G23    29.67F
SEYMOUR +      CLOUDY    54  50  87 S14G23    29.65F

$$





USA.gov is the U.S. government's official web portal to all federal, state and local government web resources and services.